TimePDT,TemperatureF,Dew PointF,Humidity,Sea Level PressureIn,VisibilityMPH,Wind Direction,Wind SpeedMPH,Gust SpeedMPH,PrecipitationIn,Events,Conditions,WindDirDegrees,DateUTC
12:56 AM,52.0,23.0,32,29.99,10.0,WSW,8.1,-,N/A,,Clear,240,2013-10-18 07:56:00
1:56 AM,46.9,21.0,36,30.01,10.0,SW,4.6,-,N/A,,Clear,220,2013-10-18 08:56:00
2:56 AM,48.0,19.9,33,30.01,10.0,SSE,6.9,-,N/A,,Clear,150,2013-10-18 09:56:00
3:56 AM,45.0,17.1,33,30.03,10.0,Calm,Calm,-,N/A,,Clear,0,2013-10-18 10:56:00
4:56 AM,42.1,15.1,34,30.04,10.0,Calm,Calm,-,N/A,,Clear,0,2013-10-18 11:56:00
5:56 AM,42.1,16.0,35,30.05,10.0,SSE,5.8,-,N/A,,Clear,150,2013-10-18 12:56:00
6:56 AM,43.0,17.1,35,30.07,10.0,Calm,Calm,-,N/A,,Clear,0,2013-10-18 13:56:00
7:56 AM,46.9,16.0,29,30.09,10.0,Calm,Calm,-,N/A,,Clear,0,2013-10-18 14:56:00
8:56 AM,59.0,19.9,22,30.11,10.0,Calm,Calm,-,N/A,,Clear,0,2013-10-18 15:56:00
9:56 AM,68.0,19.0,15,30.10,10.0,Calm,Calm,-,N/A,,Clear,0,2013-10-18 16:56:00
10:56 AM,73.0,19.0,13,30.09,10.0,Calm,Calm,-,N/A,,Clear,0,2013-10-18 17:56:00
11:56 AM,75.0,19.0,12,30.08,10.0,ESE,8.1,-,N/A,,Clear,110,2013-10-18 18:56:00
12:56 PM,78.1,18.0,10,30.06,10.0,SE,5.8,-,N/A,,Clear,140,2013-10-18 19:56:00
1:56 PM,79.0,18.0,10,30.04,10.0,SE,9.2,-,N/A,,Clear,130,2013-10-18 20:56:00
2:56 PM,80.1,18.0,10,30.02,10.0,Variable,4.6,-,N/A,,Clear,0,2013-10-18 21:56:00
3:56 PM,80.1,18.0,10,30.01,10.0,ESE,4.6,-,N/A,,Clear,120,2013-10-18 22:56:00
4:56 PM,80.1,18.0,10,30.01,10.0,East,8.1,-,N/A,,Clear,100,2013-10-18 23:56:00
5:56 PM,77.0,17.1,10,30.02,10.0,East,4.6,-,N/A,,Clear,90,2013-10-19 00:56:00
6:56 PM,73.0,17.1,12,30.04,10.0,Calm,Calm,-,N/A,,Clear,0,2013-10-19 01:56:00
7:56 PM,61.0,12.9,15,30.06,10.0,West,5.8,-,N/A,,Clear,270,2013-10-19 02:56:00
8:56 PM,57.9,12.9,17,30.06,10.0,SSW,6.9,-,N/A,,Clear,210,2013-10-19 03:56:00
9:56 PM,55.9,12.9,18,30.07,10.0,SSW,9.2,-,N/A,,Clear,210,2013-10-19 04:56:00
10:56 PM,55.0,12.9,19,30.06,10.0,SSW,8.1,-,N/A,,Clear,210,2013-10-19 05:56:00
11:56 PM,55.9,12.9,18,30.06,10.0,SW,9.2,-,N/A,,Clear,220,2013-10-19 06:56:00